Location: Aldenham
(51.6667°N, 0.3500°W)
Time: 18:43:42
(UTC+00:00)

Altair - Pass Details

Date: 19 February 2026
Orbit: 1502 x 1682 km, 47.2° (Epoch: 10 March)

Event Time Altitude Azimuth Distance (km) Brightness Sun altitude
Rises 02:33:49 0° 186° (S) 4,622 - -40.9°
Reaches altitude 10° 02:38:00 10° 170° (S) 3,648 - -40.4°
Exits shadow 02:42:41 18° 138° (SE) 3,058 9.0 -39.8°
Maximum altitude 02:43:44 19° 130° (SE) 3,039 9.1 -39.7°
Drops below altitude 10° 02:49:32 10° 90° (E) 3,702 10.0 -39.0°
Sets 02:53:47 0° 74° (ENE) 4,716 10.9 -38.5°
